Location: Corcelles
(46.1547°N, 4.7234°E)
Time: 21:01:54
(UTC+00:00)

ATLAS 5 CENTAUR R/B - Pass Details

Date: 14 July 2020
Orbit: 534 x 1124 km, 63.4° (Epoch: 09 August)

Event Time Altitude Azimuth Distance (km) Brightness Sun altitude
Rises 01:34:12 0° 323° (NW) 3,217 5.6 -18.0°
Reaches altitude 10° 01:36:33 10° 330° (NNW) 2,378 5.0 -17.8°
Maximum altitude 01:41:54 47° 44° (NE) 1,176 3.4 -17.4°
Drops below altitude 10° 01:48:07 10° 117° (ESE) 2,759 4.9 -16.9°
Sets 01:51:00 0° 123° (ESE) 3,784 5.6 -16.6°
